This is the latest recevied weather packets stored in our database for station/object KG5TTF. If no packets are shown the sender has not sent any weather packets the latest 10 day(s).
| Time | Temp. | Humidity | Pressure | Rain* | Wind** | Luminosity | Snow |
|---|---|---|---|---|---|---|---|
| 1777765421 | 20.56° C | 13% | 1022.7 hPa | 0 mm | - | 263 W/m² | - |
| 1777765118 | 21.11° C | 14% | 1022.6 hPa | 0 mm | - | 281 W/m² | - |
| 1777764814 | 21.67° C | 13% | 1022.6 hPa | 0 mm | - | 298 W/m² | - |
| 1777764511 | 21.11° C | 14% | 1022.6 hPa | 0 mm | - | 315 W/m² | - |
| 1777764207 | 20.56° C | 14% | 1022.7 hPa | 0 mm | - | 335 W/m² | - |
| 1777763904 | 21.11° C | 14% | 1022.6 hPa | 0 mm | - | 353 W/m² | - |
| 1777763602 | 21.11° C | 13% | 1022.7 hPa | 0 mm | - | 370 W/m² | - |
| 1777763300 | 20° C | 14% | 1022.7 hPa | 0 mm | - | 391 W/m² | - |
| 1777762998 | 20° C | 13% | 1022.7 hPa | 0 mm | - | 410 W/m² | - |
| 1777762694 | 19.44° C | 13% | 1023 hPa | 0 mm | - | 429 W/m² | - |
| 1777762391 | 19.44° C | 14% | 1022.9 hPa | 0 mm | - | 447 W/m² | - |
| 1777762088 | 19.44° C | 14% | 1023 hPa | 0 mm | - | 465 W/m² | - |
| 1777761784 | 19.44° C | 14% | 1022.9 hPa | 0 mm | - | 488 W/m² | - |
| 1777761482 | 20° C | 14% | 1022.7 hPa | 0 mm | - | 506 W/m² | - |
| 1777761180 | 20° C | 13% | 1022.9 hPa | 0 mm | - | 523 W/m² | - |
| 1777760877 | 20° C | 14% | 1023.2 hPa | 0 mm | - | 543 W/m² | - |
| 1777760569 | 19.44° C | 14% | 1023.2 hPa | 0 mm | - | 561 W/m² | - |
| 1777760264 | 20° C | 15% | 1023.1 hPa | 0 mm | - | 573 W/m² | - |
| 1777759961 | 19.44° C | 14% | 1023.1 hPa | 0 mm | - | 592 W/m² | - |
| 1777759658 | 20° C | 15% | 1023.3 hPa | 0 mm | - | 609 W/m² | - |
| 1777759353 | 20° C | 14% | 1023.3 hPa | 0 mm | - | 625 W/m² | - |
| 1777759050 | 20.56° C | 15% | 1023.3 hPa | 0 mm | - | 638 W/m² | - |
| 1777758748 | 20° C | 14% | 1023.2 hPa | 0 mm | - | 653 W/m² | - |
| 1777758444 | 20° C | 15% | 1023.6 hPa | 0 mm | - | 667 W/m² | - |
| 1777758142 | 20° C | 16% | 1023.6 hPa | 0 mm | - | 682 W/m² | - |
* Rain latest hour (hover to see other rain measurements)
** Current wind speed in m/s (hover to see current wind gust speed)